Terminal Aerodrome Forecast
Issued by NWS

Home | Current Version | Previous Version | Text Only | Print | Product List | Glossary On
Versions: 1 2 3 4 5 6 7 8 9 10 11 12 13 14 15 16 17 18 19 20 21 22 23 24
000
FTUS42 KTAE 071727
TAFDHN
TAF
KDHN 071727Z 0718/0818 28007KT P6SM BKN009 OVC015
     FM080000 32005KT P6SM OVC015
     FM081500 34009KT P6SM SCT025=

USA.gov is the U.S. government's official web portal to all federal, state and local government web resources and services.